Weather History for Quincy, IL

Change the Weather History Date:

Wednesday, October 24, 2012

  Actual Average Record
Temperature  
Mean Temperature 73 °F 52 °F  
Max Temperature 81 °F 62 °F 84 °F (1940)
Min Temperature 65 °F 42 °F 23 °F (1981)
Degree Days  
Heating Degree Days 0 13  
Month to date heating degree days 236 235  
Since 1 July heating degree days 321 322  
Cooling Degree Days 8 0  
Month to date cooling degree days 21 14  
Year to date cooling degree days 1573 1090  
Growing Degree Days 22 (Base 50)    
Moisture  
Dew Point 61 °F    
Average Humidity 71    
Maximum Humidity 84    
Minimum Humidity 58    
Precipitation  
Precipitation 0.00 in 0.09 in 1.09 in (1975)
Month to date precipitation 4.50 2.34  
Year to date precipitation 23.06 31.39  
Sea Level Pressure  
Sea Level Pressure 29.84 in    
Wind  
Wind Speed 12 mph (South)    
Max Wind Speed 21 mph    
Max Gust Speed 28 mph    
Visibility 10 miles    
Events      
T = Trace of Precipitation, MM = Missing Value Source: NWS Daily Summary

Daily Weather History Graph

Daily Weather History Graph

Search for Another Location

Airport:

Trip Planner

Search our weather history database for the weather conditions in past years. The results will help you decide how hot, cold, wet, or windy it might be!

Date:

Astronomy

Oct. 24, 2012 Rise Set
Actual Time 7:25 AM CDT 6:11 PM CDT
Civil Twilight 6:57 AM CDT 6:39 PM CDT
Nautical Twilight 6:26 AM CDT 7:11 PM CDT
Astronomical Twilight 5:54 AM CDT 7:42 PM CDT
Moon 3:27 PM CDT (10/24) 2:21 AM CDT (10/24)
Length of Visible Light 11h 41m
Length of Day
10h 46m
Waxing Gibbous, 76% of the Moon is Illuminated
Oct 24
Waxing Gibbous
Oct 29
Full
Nov 6
Last Quarter
Nov 13
New
Nov 20
First Quarter

Hourly Weather History & Observations

Time (CDT) Temp. Heat Index Dew Point Humidity Pressure Visibility Wind Dir Wind Speed Gust Speed Precip Events Conditions
12:54 AM 66.2 °F - 59.0 °F 78% 29.88 in 10.0 mi South 9.2 mph - N/A   Clear
1:54 AM 66.0 °F - 57.9 °F 75% 29.86 in 10.0 mi SSW 11.5 mph - N/A   Clear
2:54 AM 66.9 °F - 57.9 °F 73% 29.86 in 10.0 mi South 10.4 mph - N/A   Scattered Clouds
3:54 AM 66.9 °F - 57.9 °F 73% 29.86 in 10.0 mi SSW 10.4 mph - N/A   Mostly Cloudy
4:54 AM 66.0 °F - 59.0 °F 78% 29.87 in 10.0 mi SSW 9.2 mph - N/A   Clear
5:54 AM 66.9 °F - 59.0 °F 76% 29.89 in 10.0 mi South 8.1 mph - N/A   Mostly Cloudy
6:54 AM 64.9 °F - 59.0 °F 81% 29.90 in 10.0 mi South 8.1 mph - N/A   Clear
7:54 AM 66.9 °F - 60.1 °F 79% 29.90 in 10.0 mi South 9.2 mph - N/A   Scattered Clouds
8:54 AM 69.1 °F - 60.1 °F 73% 29.90 in 10.0 mi South 8.1 mph - N/A   Overcast
9:54 AM 71.1 °F - 62.1 °F 73% 29.90 in 10.0 mi South 11.5 mph - N/A   Clear
10:54 AM 73.0 °F - 63.0 °F 71% 29.89 in 10.0 mi South 13.8 mph 21.9 mph N/A   Clear
11:54 AM 75.9 °F - 64.0 °F 67% 29.88 in 10.0 mi South 13.8 mph - N/A   Clear
12:54 PM 78.1 °F - 64.9 °F 64% 29.86 in 10.0 mi SSW 15.0 mph - N/A   Partly Cloudy
1:54 PM 79.0 °F - 64.9 °F 62% 29.83 in 10.0 mi SSW 13.8 mph 21.9 mph N/A   Scattered Clouds
2:54 PM 80.1 °F 81.9 °F 64.9 °F 60% 29.81 in 10.0 mi South 13.8 mph - N/A   Partly Cloudy
3:54 PM 79.0 °F - 64.0 °F 60% 29.81 in 10.0 mi South 13.8 mph 25.3 mph N/A   Partly Cloudy
4:54 PM 81.0 °F 82.5 °F 64.0 °F 56% 29.80 in 10.0 mi South 16.1 mph 23.0 mph N/A   Clear
5:54 PM 78.1 °F - 63.0 °F 60% 29.80 in 10.0 mi South 8.1 mph - N/A   Clear
6:54 PM 75.9 °F - 63.0 °F 64% 29.80 in 10.0 mi South 10.4 mph - N/A   Clear
7:54 PM 75.0 °F - 62.1 °F 64% 29.80 in 10.0 mi South 9.2 mph - N/A   Clear
8:54 PM 75.9 °F - 61.0 °F 60% 29.80 in 10.0 mi South 13.8 mph - N/A   Clear
9:54 PM 73.9 °F - 61.0 °F 64% 29.79 in 10.0 mi South 12.7 mph 18.4 mph N/A   Clear
10:54 PM 73.0 °F - 61.0 °F 66% 29.79 in 10.0 mi South 11.5 mph - N/A   Clear
11:54 PM 72.0 °F - 61.0 °F 68% 29.78 in 10.0 mi South 12.7 mph - N/A   Clear